EW1587 Weather Reports


time (UTC)temp
F
wind
direction
speed
knots
gust
knots
rain 1hr
in
rain 24hr
in
rain mn
in
humidity
%
barometer
mb
20260902194602 83 117 1.7 7.0 0.00 0.00 0.00 57 1010.5
20260902194057 83 113 4.3 7.8 0.00 0.00 0.00 57 1010.5
20260902193556 83 68 3.5 7.8 0.00 0.00 0.00 56 1010.5
20260902193059 83 77 0.0 5.2 0.00 0.00 0.00 58 1010.7
20260902192555 84 56 1.7 5.2 0.00 0.00 0.00 57 1010.7
20260902192056 84 65 0.9 4.3 0.00 0.00 0.00 57 1010.7
20260902191554 84 115 0.0 3.5 0.00 0.00 0.00 59 1010.8
20260902191052 83 122 0.0 3.5 0.00 0.00 0.00 59 1010.7
20260902190551 82 109 0.9 3.5 0.00 0.00 0.00 60 1010.8
20260902190050 82 58 0.0 3.5 0.00 0.00 0.00 58 1010.9
20260902185550 82 67 0.0 4.3 0.00 0.00 0.00 60 1010.9
20260902185051 81 93 1.7 7.0 0.00 0.00 0.00 60 1011.1
20260902184551 81 69 2.6 7.0 0.00 0.00 0.00 60 1011.1
20260902184051 82 34 3.5 6.1 0.00 0.00 0.00 58 1011.2
20260902183547 82 73 0.9 5.2 0.00 0.00 0.00 60 1011.3
20260902183047 81 174 0.0 4.3 0.00 0.00 0.00 60 1011.3
20260902182545 81 96 2.6 4.3 0.00 0.00 0.00 62 1011.4
20260902182045 80 61 0.0 4.3 0.00 0.00 0.00 61 1011.4
20260902181553 80 18 0.0 4.3 0.00 0.00 0.00 62 1011.4
20260902181046 80 101 0.9 6.1 0.00 0.00 0.00 63 1011.4
20260902180545 80 173 1.7 7.8 0.00 0.00 0.00 60 1011.4
20260902180045 80 115 3.5 7.8 0.00 0.00 0.00 64 1011.4
20260902175544 80 117 3.5 7.0 0.00 0.00 0.00 59 1011.4
20260902175047 81 84 2.6 5.2 0.00 0.00 0.00 60 1011.5
20260902174547 81 78 1.7 5.2 0.00 0.00 0.00 61 1011.6
20260902174044 81 122 0.0 4.3 0.00 0.00 0.00 60 1011.6
20260902173543 81 101 0.9 4.3 0.00 0.00 0.00 60 1011.7
20260902173046 81 214 0.0 5.2 0.00 0.00 0.00 59 1011.7
20260902172541 81 72 0.9 5.2 0.00 0.00 0.00 64 1011.8
20260902172040 81 82 0.9 4.3 0.00 0.00 0.00 64 1011.8
20260902171548 80 160 0.0 4.3 0.00 0.00 0.00 65 1011.8
20260902171038 79 109 0.9 4.3 0.00 0.00 0.00 66 1011.8
20260902170536 79 85 0.0 3.5 0.00 0.00 0.00 70 1011.8
20260902170035 77 187 0.0 2.6 0.00 0.00 0.00 72 1012.1
20260902165534 77 103 0.9 4.3 0.00 0.00 0.00 71 1012.2
20260902165033 77 92 0.9 4.3 0.00 0.00 0.00 71 1012.1
20260902164533 77 67 1.7 4.3 0.00 0.00 0.00 69 1012.1
20260902164030 76 50 0.0 4.3 0.00 0.00 0.00 70 1012.0
20260902163531 76 103 2.6 5.2 0.00 0.00 0.00 69 1011.9
20260902163030 76 82 2.6 5.2 0.00 0.00 0.00 70 1011.9
20260902162528 76 110 2.6 5.2 0.00 0.00 0.00 71 1011.9
20260902162028 76 118 0.0 2.6 0.00 0.00 0.00 72 1012.1
20260902161528 76 96 0.9 3.5 0.00 0.00 0.00 72 1011.9
20260902161030 76 110 0.9 3.5 0.00 0.00 0.00 72 1012.0
20260902160527 76 51 0.0 5.2 0.00 0.00 0.00 71 1012.0
20260902160026 76 91 1.7 4.3 0.00 0.00 0.00 74 1011.9
20260902155525 75 20 0.0 2.6 0.00 0.00 0.00 75 1012.0
20260902155025 75 104 0.0 2.6 0.00 0.00 0.00 75 1011.9
20260902154527 75 65 0.0 0.9 0.00 0.00 0.00 75 1012.0
20260902154024 75 50 0.0 0.9 0.00 0.00 0.00 74 1012.0
20260902153523 75 65 0.0 0.9 0.00 0.00 0.00 78 1012.1
20260902153021 74 231 0.0 0.9 0.00 0.00 0.00 80 1012.1
20260902152520 73 298 0.0 1.7 0.00 0.00 0.00 80 1012.2
20260902152020 72 294 0.0 2.6 0.00 0.00 0.00 81 1012.0
20260902151521 72 83 0.0 2.6 0.00 0.00 0.00 80 1011.7
20260902151020 72 77 0.0 1.7 0.00 0.00 0.00 80 1011.6
20260902150520 72 104 0.0 2.6 0.00 0.00 0.00 79 1011.7
20260902150020 73 81 0.0 2.6 0.00 0.00 0.00 78 1011.7
20260902145519 73 92 0.0 0.9 0.00 0.00 0.00 79 1011.5
20260902145038 72 189 0.0 1.7 0.00 0.00 0.00 80 1011.5
20260902144516 72 134 0.0 1.7 0.00 0.00 0.00 79 1011.7
20260902144017 72 175 0.0 1.7 0.00 0.00 0.00 80 1012.0
20260902143516 72 101 0.0 2.6 0.00 0.00 0.00 80 1011.8
20260902143016 72 139 0.0 2.6 0.00 0.00 0.00 80 1011.8
20260902142516 72 187 0.0 2.6 0.00 0.00 0.00 79 1011.9
20260902142016 72 75 0.0 3.5 0.00 0.00 0.00 80 1012.0
20260902141515 72 201 0.9 3.5 0.00 0.00 0.00 80 1012.0
20260902141016 72 122 0.0 1.7 0.00 0.00 0.00 81 1012.0
20260902140514 71 133 0.0 1.7 0.00 0.00 0.00 82 1012.0
20260902140013 71 143 0.0 3.5 0.00 0.00 0.00 82 1012.0
20260902135539 71 105 0.9 2.6 0.00 0.00 0.00 81 1011.9
20260902135008 71 122 0.0 2.6 0.00 0.00 0.00 83 1012.1
20260902134520 71 99 0.0 3.5 0.00 0.00 0.00 81 1012.1
20260902134007 71 210 0.0 3.5 0.00 0.00 0.00 83 1012.0
20260902133505 70 67 0.0 1.7 0.00 0.00 0.00 83 1012.1
20260902133004 69 101 0.0 2.6 0.00 0.00 0.00 85 1012.3
20260902132507 69 88 0.9 2.6 0.00 0.00 0.00 84 1012.4
20260902132003 69 92 0.0 1.7 0.00 0.00 0.00 86 1012.4
20260902131503 68 104 0.0 4.3 0.00 0.00 0.00 86 1012.2
20260902131003 68 158 0.9 4.3 0.00 0.00 0.00 87 1012.1
20260902130503 67 82 0.0 3.5 0.00 0.00 0.00 89 1012.2
20260902130002 66 105 0.0 4.3 0.00 0.00 0.00 90 1012.2
20260902125557 66 94 0.9 4.3 0.00 0.00 0.00 90 1012.2
20260902125057 65 100 0.9 2.6 0.00 0.00 0.00 93 1012.1
20260902124604 64 86 0.0 1.7 0.00 0.00 0.00 95 1012.1
20260902124055 64 105 0.0 0.9 0.00 0.00 0.00 95 1012.1
20260902123629 63 82 0.0 2.6 0.00 0.00 0.00 94 1012.1
20260902123104 64 93 0.0 2.6 0.00 0.00 0.00 93 1012.0
20260902122550 64 64 0.9 2.6 0.00 0.00 0.00 93 1012.0
20260902122049 64 64 0.0 2.6 0.00 0.00 0.00 93 1012.2
20260902121548 64 65 1.7 2.6 0.00 0.00 0.00 93 1012.1
20260902121049 64 75 0.0 0.9 0.00 0.00 0.00 92 1012.0
20260902120530 64 94 0.0 0.9 0.00 0.00 0.00 92 1011.9
20260902120048 64 108 0.0 0.9 0.00 0.00 0.00 92 1011.9
20260902115546 64 94 0.0 0.9 0.00 0.00 0.00 92 1011.9
20260902115046 64 79 0.0 0.9 0.00 0.00 0.00 91 1011.9
20260902114553 64 100 0.0 0.9 0.00 0.00 0.00 91 1011.9
20260902114046 64 89 0.0 0.9 0.00 0.00 0.00 91 1011.9
20260902113546 65 79 0.0 0.9 0.00 0.00 0.00 91 1011.8
20260902113044 65 101 0.0 0.9 0.00 0.00 0.00 90 1011.9
20260902112543 65 93 0.0 0.9 0.00 0.00 0.00 90 1011.9
20260902112046 65 82 0.0 0.9 0.00 0.00 0.00 90 1012.0
20260902111546 65 75 0.0 1.7 0.00 0.00 0.00 89 1012.2
20260902111041 65 77 0.0 1.7 0.00 0.00 0.00 89 1012.1
20260902110540 65 226 0.0 0.9 0.00 0.00 0.00 89 1012.0
20260902110057 66 75 0.0 0.9 0.00 0.00 0.00 89 1011.9
20260902105540 66 77 0.0 0.0 0.00 0.00 0.00 89 1012.0
20260902105039 66 88 0.0 0.9 0.00 0.00 0.00 88 1012.0
20260902104539 66 90 0.0 0.9 0.00 0.00 0.00 88 1012.1
20260902104041 66 79 0.0 0.9 0.00 0.00 0.00 87 1012.2
20260902103638 66 274 0.0 2.6 0.00 0.00 0.00 87 1012.2
20260902103040 66 130 0.0 5.2 0.00 0.00 0.00 88 1012.2
20260902102542 66 177 1.7 5.2 0.00 0.00 0.00 88 1012.3
20260902102038 65 269 0.0 4.3 0.00 0.00 0.00 88 1012.4
20260902101540 65 248 0.0 0.9 0.00 0.00 0.00 87 1012.5
20260902101037 65 278 0.0 0.9 0.00 0.00 0.00 87 1012.4
20260902100541 66 232 0.0 0.9 0.00 0.00 0.00 86 1012.3
20260902100037 66 239 0.0 0.0 0.00 0.00 0.00 86 1012.4
20260902095537 66 239 0.0 0.0 0.00 0.00 0.00 85 1012.3
20260902095034 66 50 0.0 0.0 0.00 0.00 0.00 85 1012.0
20260902094542 66 50 0.0 0.0 0.00 0.00 0.00 84 1011.8
20260902094033 66 50 0.0 0.0 0.00 0.00 0.00 84 1011.6
20260902093532 66 50 0.0 2.6 0.00 0.00 0.00 84 1011.7
20260902093033 66 50 0.0 3.5 0.00 0.00 0.00 84 1011.6
20260902092533 66 58 2.6 4.3 0.00 0.00 0.00 84 1011.4
20260902092036 67 84 0.0 4.3 0.00 0.00 0.00 83 1011.3
20260902091533 67 68 1.7 3.5 0.00 0.00 0.00 81 1011.1
20260902091033 67 60 0.0 1.7 0.00 0.00 0.00 81 1011.1
20260902090533 67 77 0.0 2.6 0.00 0.00 0.00 81 1011.2
20260902090034 67 83 0.0 2.6 0.00 0.00 0.00 81 1011.1
20260902085531 67 96 0.9 1.7 0.00 0.00 0.00 81 1011.0
20260902085030 67 86 0.0 2.6 0.00 0.00 0.00 81 1011.1
20260902084538 67 101 0.9 2.6 0.00 0.00 0.00 81 1011.1
20260902084031 67 95 0.9 2.6 0.00 0.00 0.00 82 1011.2
20260902083531 67 84 0.0 3.5 0.00 0.00 0.00 81 1011.1
20260902083028 67 86 0.9 3.5 0.00 0.00 0.00 81 1011.5
20260902082531 67 97 0.0 1.7 0.00 0.00 0.00 81 1011.8
20260902082027 67 95 0.0 3.5 0.00 0.00 0.00 81 1011.9
20260902081527 67 54 0.0 3.5 0.00 0.00 0.00 82 1011.7
20260902081029 67 91 0.0 3.5 0.00 0.00 0.00 82 1011.9
20260902080527 67 93 0.0 3.5 0.00 0.00 0.00 84 1011.9
20260902080048 66 94 0.0 1.7 0.00 0.00 0.00 84 1011.8
20260902075525 67 89 0.0 1.7 0.00 0.00 0.00 84 1011.7
20260902075025 67 92 0.0 1.7 0.00 0.00 0.00 84 1011.8
20260902074526 67 88 0.9 1.7 0.00 0.00 0.00 84 1011.7
20260902074026 66 93 0.0 1.7 0.00 0.00 0.00 84 1011.7
20260902073525 66 188 0.0 1.7 0.00 0.00 0.00 84 1011.7
20260902073025 66 151 0.0 3.5 0.00 0.00 0.00 84 1011.7
20260902072525 67 155 0.0 3.5 0.00 0.00 0.00 84 1011.5
20260902072024 67 309 0.0 2.6 0.00 0.00 0.00 83 1011.5
20260902071533 67 82 0.0 0.9 0.00 0.00 0.00 83 1011.5
20260902071026 67 133 0.0 1.7 0.00 0.00 0.00 82 1011.9
20260902070522 67 105 0.0 1.7 0.00 0.00 0.00 82 1011.9
20260902070025 67 96 0.0 0.9 0.00 0.00 0.00 82 1011.9
20260902065521 67 85 0.0 0.9 0.00 0.00 0.00 83 1011.8
20260902065021 67 96 0.0 1.7 0.00 0.00 0.00 83 1011.8
20260902064524 68 75 0.0 1.7 0.00 0.00 0.00 82 1011.9
20260902064018 68 89 0.0 1.7 0.00 0.00 0.00 79 1012.1
20260902063518 68 84 0.0 0.9 0.00 0.00 0.00 77 1012.3
20260902063029 68 100 0.0 0.0 0.00 0.00 0.00 76 1012.4
20260902062518 69 101 0.0 0.0 0.00 0.00 0.00 75 1012.4
20260902062021 69 101 0.0 2.6 0.00 0.00 0.00 75 1012.5
20260902061530 69 101 0.0 2.6 0.00 0.00 0.00 76 1012.4
20260902061018 68 96 0.0 1.7 0.00 0.00 0.00 76 1012.3
20260902060517 68 123 0.0 1.7 0.00 0.00 0.00 79 1012.3
20260902060020 68 92 0.0 1.7 0.00 0.00 0.00 79 1012.1
20260902055516 68 81 0.0 3.5 0.00 0.00 0.00 79 1011.9
20260902055016 68 63 2.6 4.3 0.00 0.00 0.00 79 1011.8
20260902054520 68 60 2.6 4.3 0.00 0.00 0.00 79 1012.0
20260902054015 67 65 2.6 4.3 0.00 0.00 0.00 81 1012.2
20260902053514 67 56 0.9 3.5 0.00 0.00 0.00 82 1012.2
20260902053018 68 61 2.6 3.5 0.00 0.00 0.00 81 1012.2
20260902052513 69 58 0.0 4.3 0.00 0.00 0.00 78 1012.2
20260902052009 70 65 0.9 4.3 0.00 0.00 0.00 76 1012.4
20260902051509 70 65 4.3 5.2 0.00 0.00 0.00 75 1012.6
20260902051006 69 67 2.6 3.5 0.00 0.00 0.00 77 1012.8
20260902050506 69 65 1.7 1.7 0.00 0.00 0.00 80 1012.6
20260902050007 69 74 0.0 0.0 0.00 0.00 0.00 80 1012.8
20260902045504 69 79 0.0 0.0 0.00 0.00 0.00 80 1012.7
20260902045006 69 79 0.0 0.0 0.00 0.00 0.00 79 1012.7
20260902044504 69 78 0.0 1.7 0.00 0.00 0.00 78 1012.8
20260902044006 70 71 0.0 1.7 0.00 0.00 0.00 77 1012.7
20260902043503 70 68 0.9 1.7 0.00 0.00 0.00 76 1012.8
20260902043003 70 61 0.0 1.7 0.00 0.00 0.00 76 1012.6
20260902042503 70 61 0.0 1.7 0.00 0.00 0.00 77 1012.7
20260902042003 70 56 0.0 1.7 0.00 0.00 0.00 79 1012.4
20260902041503 70 60 0.0 3.5 0.00 0.00 0.00 80 1012.2
20260902041003 69 61 2.6 3.5 0.00 0.00 0.00 81 1012.0
20260902040503 69 65 2.6 5.2 0.00 0.00 0.00 82 1012.0
20260902040002 68 63 3.5 5.2 0.00 0.00 0.00 83 1011.9
20260902035502 68 60 3.5 5.2 0.00 0.00 0.00 85 1012.0
20260902035001 68 64 0.9 2.6 0.00 0.00 0.00 86 1012.0
20260902034501 68 72 0.0 1.7 0.00 0.00 0.00 86 1012.2
20260902034002 69 65 0.0 1.7 0.00 0.00 0.00 85 1012.2
20260902033501 69 58 0.0 0.9 0.00 0.00 0.00 83 1012.4
20260902033001 69 304 0.0 0.0 0.00 0.00 0.00 82 1012.6
20260902032503 70 304 0.0 0.0 0.00 0.00 0.00 82 1012.7
20260902032001 70 303 0.0 0.0 0.00 0.00 0.00 83 1012.6
20260902031503 70 304 0.0 0.0 0.00 0.00 0.00 83 1012.5
20260902031002 70 303 0.0 0.0 0.00 0.00 0.00 85 1012.5
20260902030604 70 304 0.0 0.0 0.00 0.00 0.00 85 1012.5
20260902025559 70 304 0.0 0.9 0.00 0.00 0.00 86 1012.7
20260902025059 69 295 0.0 0.9 0.00 0.00 0.00 84 1012.8
20260902024600 69 322 0.0 0.0 0.00 0.00 0.00 81 1012.7
20260902024059 69 323 0.0 0.0 0.00 0.00 0.00 80 1012.5
20260902023559 69 323 0.0 0.0 0.00 0.00 0.00 80 1012.4
20260902023102 70 322 0.0 0.9 0.00 0.00 0.00 80 1012.3
20260902022559 70 321 0.0 0.9 0.00 0.00 0.00 79 1012.2
20260902022058 70 302 0.0 0.0 0.00 0.00 0.00 79 1012.3
20260902021608 71 290 0.0 0.0 0.00 0.00 0.00 79 1012.3
20260902021059 71 290 0.0 0.0 0.00 0.00 0.00 78 1012.3
20260902020559 71 290 0.0 0.0 0.00 0.00 0.00 77 1012.3
20260902020104 71 290 0.0 0.9 0.00 0.00 0.00 76 1012.3
20260902015601 71 290 0.0 0.9 0.00 0.00 0.00 75 1012.3
20260902015058 72 288 0.0 0.0 0.00 0.00 0.00 74 1012.3
20260902014601 72 288 0.0 0.0 0.00 0.00 0.00 74 1012.2
20260902014057 72 288 0.0 0.0 0.00 0.00 0.00 72 1012.1
20260902013557 72 288 0.0 0.0 0.00 0.00 0.00 71 1011.9
20260902013057 73 288 0.0 0.0 0.00 0.00 0.00 70 1012.0
20260902012559 73 288 0.0 0.0 0.00 0.00 0.00 69 1012.1
20260902012057 73 288 0.0 0.0 0.00 0.00 0.00 68 1012.0
20260902011557 74 288 0.0 0.0 0.00 0.00 0.00 68 1012.0
20260902011057 74 288 0.0 0.0 0.00 0.00 0.00 66 1012.0
20260902010556 74 288 0.0 0.9 0.00 0.00 0.00 65 1011.9
20260902010056 75 288 0.0 0.9 0.00 0.00 0.00 64 1011.9
20260902005555 75 290 0.0 0.9 0.00 0.00 0.00 63 1011.9
20260902005526 75 290 0.0 0.9 0.00 0.00 0.00 63 1012.0
20260902005056 75 23 0.0 0.9 0.00 0.00 0.00 65 1011.9
20260902004555 76 37 0.0 0.0 0.00 0.00 0.00 66 1011.7
20260902004055 76 22 0.0 0.9 0.00 0.00 0.00 63 1011.8
20260902003554 76 307 0.0 0.9 0.00 0.00 0.00 60 1011.9
20260902003054 76 314 0.0 0.9 0.00 0.00 0.00 60 1012.0
20260902002553 76 305 0.0 0.0 0.00 0.00 0.00 62 1012.0
20260902000548 77 328 0.0 1.7 0.00 0.00 0.00 58 1012.2
20260902000151 78 337 0.0 0.9 0.00 0.00 0.00 58 1012.1
20260901235549 78 325 0.0 0.9 0.00 0.00 0.00 58 1012.2
20260901235049 78 332 0.0 0.9 0.00 0.00 0.00 57 1012.2
20260901234651 78 330 0.0 0.9 0.00 0.00 0.00 58 1012.2
20260901225040 80 290 1.7 4.3 0.00 0.00 0.00 55 1012.2
20260901224540 80 297 2.6 4.3 0.00 0.00 0.00 55 1012.2
20260901223537 80 287 2.6 7.0 0.00 0.00 0.00 55 1012.4
20260901223038 80 257 3.5 7.0 0.00 0.00 0.00 54 1012.4
20260901222537 80 291 3.5 6.1 0.00 0.00 0.00 55 1012.5
20260901222036 80 291 1.7 6.1 0.00 0.00 0.00 54 1012.4
20260901221602 80 278 2.6 5.2 0.00 0.00 0.00 55 1012.5
20260901221036 80 283 2.6 4.3 0.00 0.00 0.00 53 1012.4
20260901220535 81 295 1.7 3.5 0.00 0.00 0.00 52 1012.4
20260901220136 81 285 0.0 3.5 0.00 0.00 0.00 53 1012.2
20260901214512 82 295 0.0 0.9 0.00 0.00 0.00 48 1012.2
20260901214012 82 281 0.0 0.0 0.00 0.00 0.00 49 1012.1
20260901213513 83 291 0.0 0.9 0.00 0.00 0.00 51 1012.2
20260901213033 83 252 0.0 0.9 0.00 0.00 0.00 49 1012.3
20260901212511 84 283 0.0 1.7 0.00 0.00 0.00 48 1012.3
20260901212011 85 246 0.0 1.7 0.00 0.00 0.00 48 1012.3
20260901211519 85 315 0.0 0.0 0.00 0.00 0.00 47 1012.2
20260901211010 85 274 0.0 0.0 0.00 0.00 0.00 49 1012.1
20260901210510 85 274 0.0 0.9 0.00 0.00 0.00 45 1012.1
20260901210017 86 274 0.0 0.9 0.00 0.00 0.00 44 1012.2
20260901205510 86 311 0.0 0.9 0.00 0.00 0.00 44 1012.2
20260901205009 87 308 0.0 0.0 0.00 0.00 0.00 46 1012.2
20260901204510 87 308 0.0 0.0 0.00 0.00 0.00 45 1012.1
20260901204009 86 311 0.0 0.0 0.00 0.00 0.00 44 1012.1
20260901203511 86 311 0.0 0.0 0.00 0.00 0.00 42 1012.1
20260901203015 86 311 0.0 0.0 0.00 0.00 0.00 42 1012.1
20260901202508 86 311 0.0 0.9 0.00 0.00 0.00 43 1012.2
20260901202008 86 311 0.0 0.9 0.00 0.00 0.00 41 1012.2
20260901201509 86 156 0.0 0.9 0.00 0.00 0.00 41 1012.3
20260901201009 85 296 0.0 1.7 0.00 0.00 0.00 42 1012.5
20260901200510 85 280 0.0 1.7 0.00 0.00 0.00 40 1012.6
20260901200012 86 271 0.0 0.9 0.00 0.00 0.00 43 1012.8
20260901195507 85 278 0.0 4.3 0.00 0.00 0.00 39 1012.7
20260901195007 86 320 0.0 4.3 0.00 0.00 0.00 36 1012.7